Location: Anjeux
(47.8815°N, 6.2076°E)
Time: 11:15:03
(UTC+00:00)

AO-27 - Pass Details

Date: 14 December 2021
Orbit: 784 x 798 km, 98.9° (Epoch: 24 January)

Event Time Altitude Azimuth Distance (km) Brightness Sun altitude
Rises 16:20:23 0° 113° (ESE) 3,298 10.5 -6.2°
Reaches altitude 10° 16:23:29 10° 94° (E) 2,373 9.6 -6.7°
Maximum altitude 16:26:43 17° 55° (NE) 1,942 9.1 -7.2°
Drops below altitude 10° 16:29:57 10° 17° (NNE) 2,382 9.8 -7.6°
Sets 16:33:04 0° 358° (N) 3,315 10.7 -8.1°
